• In Belarus
  • List of Countries
  • For 7 days
  • Water Temperature
  • Weather Map
  • Weather Widgets
  • user-avatar
    Login

    Hourly Weather Parakou

    Today, 7 April, Tuesday

    Time Temperature Precipitation Wind Pressure Humidity
    00:00 +30°C° 0 mm 4 mps 727 mmHg 67%
    01:00 +29°C° 0 mm 4 mps 726 mmHg 68%
    02:00 +29°C° 0 mm 4 mps 726 mmHg 70%
    03:00 +28°C° 0 mm 3 mps 725 mmHg 71%
    04:00 +28°C° 0 mm 3 mps 726 mmHg 72%
    05:00 +28°C° 0 mm 3 mps 726 mmHg 72%
    06:00 +27°C° 0 mm 3 mps 726 mmHg 73%
    07:00 +29°C° 0 mm 3 mps 727 mmHg 68%
    08:00 +30°C° 0 mm 3 mps 727 mmHg 63%
    09:00 +31°C° 0 mm 3 mps 728 mmHg 59%
    10:00 +34°C° 0 mm 3 mps 728 mmHg 52%
    11:00 +36°C° 0 mm 3 mps 727 mmHg 46%
    12:00 +38°C° 0 mm 3 mps 727 mmHg 40%
    13:00 +39°C° 0 mm 3 mps 726 mmHg 36%
    14:00 +40°C° 0 mm 2 mps 725 mmHg 33%
    15:00 +41°C° 0 mm 2 mps 724 mmHg 29%
    16:00 +40°C° 0 mm 2 mps 725 mmHg 31%
    17:00 +38°C° 0 mm 2 mps 725 mmHg 32%
    18:00 +37°C° 0 mm 2 mps 725 mmHg 34%
    19:00 +36°C° 0.1 mm 2 mps 725 mmHg 40%
    20:00 +35°C° 0.1 mm 3 mps 726 mmHg 46%
    21:00 +33°C° 0.1 mm 3 mps 726 mmHg 52%
    22:00 +31°C° 0.3 mm 3 mps 726 mmHg 56%
    23:00 +31°C° 0.3 mm 3 mps 726 mmHg 60%

    Tomorrow, 8 April, Wednesday

    Time Temperature Precipitation Wind Pressure Humidity
    00:00 +30°C° 0.3 mm 2 mps 726 mmHg 65%
    01:00 +29°C° 0 mm 3 mps 726 mmHg 67%
    02:00 +29°C° 0 mm 3 mps 725 mmHg 70%
    03:00 +28°C° 0 mm 3 mps 725 mmHg 72%
    04:00 +28°C° 0 mm 3 mps 725 mmHg 75%
    05:00 +27°C° 0 mm 3 mps 725 mmHg 77%
    06:00 +27°C° 0 mm 3 mps 726 mmHg 79%
    07:00 +29°C° 0 mm 3 mps 726 mmHg 72%
    08:00 +31°C° 0 mm 3 mps 727 mmHg 65%
    09:00 +33°C° 0 mm 3 mps 727 mmHg 58%
    10:00 +35°C° 0 mm 3 mps 727 mmHg 51%
    11:00 +37°C° 0 mm 3 mps 726 mmHg 44%
    12:00 +39°C° 0 mm 3 mps 726 mmHg 37%
    13:00 +40°C° 0 mm 2 mps 725 mmHg 34%
    14:00 +41°C° 0 mm 2 mps 724 mmHg 31%
    15:00 +41°C° 0 mm 2 mps 724 mmHg 28%
    16:00 +39°C° 0.2 mm 2 mps 724 mmHg 34%
    17:00 +37°C° 0.2 mm 2 mps 724 mmHg 40%
    18:00 +35°C° 0.2 mm 2 mps 724 mmHg 46%
    19:00 +32°C° 4.2 mm 2 mps 725 mmHg 59%
    20:00 +29°C° 4.2 mm 2 mps 726 mmHg 72%
    21:00 +27°C° 4.2 mm 3 mps 726 mmHg 85%
    22:00 +26°C° 8.3 mm 3 mps 726 mmHg 86%
    23:00 +25°C° 8.3 mm 4 mps 726 mmHg 86%

    Day after tomorrow, 9 April, Thursday

    Time Temperature Precipitation Wind Pressure Humidity
    00:00 +25°C° 8.3 mm 5 mps 726 mmHg 87%
    01:00 +25°C° 0.5 mm 4 mps 726 mmHg 81%
    02:00 +26°C° 0.5 mm 4 mps 725 mmHg 75%
    03:00 +27°C° 0.5 mm 3 mps 724 mmHg 70%
    04:00 +27°C° 0 mm 3 mps 724 mmHg 68%
    05:00 +27°C° 0 mm 2 mps 724 mmHg 67%
    06:00 +27°C° 0 mm 2 mps 724 mmHg 66%
    07:00 +28°C° 0 mm 2 mps 725 mmHg 66%
    08:00 +28°C° 0 mm 3 mps 726 mmHg 67%
    09:00 +29°C° 0 mm 4 mps 726 mmHg 68%
    10:00 +30°C° 0 mm 4 mps 726 mmHg 65%
    11:00 +32°C° 0 mm 4 mps 726 mmHg 62%
    12:00 +33°C° 0 mm 4 mps 725 mmHg 59%
    13:00 +34°C° 0 mm 3 mps 725 mmHg 56%
    14:00 +35°C° 0 mm 2 mps 725 mmHg 52%
    15:00 +35°C° 0 mm 1 mps 724 mmHg 49%
    16:00 +35°C° 0 mm 2 mps 724 mmHg 52%
    17:00 +34°C° 0 mm 2 mps 725 mmHg 56%
    18:00 +32°C° 0 mm 2 mps 725 mmHg 59%
    19:00 +31°C° 0.1 mm 3 mps 725 mmHg 64%
    20:00 +30°C° 0.1 mm 3 mps 726 mmHg 68%
    21:00 +29°C° 0.1 mm 4 mps 726 mmHg 72%
    22:00 +28°C° 0.4 mm 4 mps 726 mmHg 75%
    23:00 +27°C° 0.4 mm 3 mps 726 mmHg 78%

    10 April, Friday

    Time Temperature Precipitation Wind Pressure Humidity
    00:00 +27°C° 0.4 mm 3 mps 726 mmHg 81%
    01:00 +27°C° 0 mm 3 mps 726 mmHg 83%
    02:00 +26°C° 0 mm 3 mps 726 mmHg 84%
    03:00 +26°C° 0 mm 2 mps 726 mmHg 85%
    04:00 +26°C° 0 mm 2 mps 726 mmHg 86%
    05:00 +26°C° 0 mm 2 mps 726 mmHg 87%
    06:00 +26°C° 0 mm 2 mps 727 mmHg 88%
    07:00 +27°C° 0 mm 2 mps 727 mmHg 81%
    08:00 +28°C° 0 mm 3 mps 728 mmHg 75%
    09:00 +30°C° 0 mm 3 mps 728 mmHg 68%
    10:00 +31°C° 0 mm 3 mps 727 mmHg 63%
    11:00 +32°C° 0 mm 2 mps 727 mmHg 57%
    12:00 +35°C° 0 mm 2 mps 726 mmHg 52%
    13:00 +35°C° 0 mm 2 mps 726 mmHg 49%
    14:00 +35°C° 0 mm 1 mps 725 mmHg 47%
    15:00 +35°C° 0 mm 1 mps 724 mmHg 45%
    16:00 +34°C° 0 mm 1 mps 724 mmHg 48%
    17:00 +33°C° 0 mm 1 mps 724 mmHg 50%
    18:00 +32°C° 0 mm 1 mps 724 mmHg 53%
    19:00 +31°C° 0 mm 1 mps 725 mmHg 55%
    20:00 +31°C° 0 mm 1 mps 725 mmHg 58%
    21:00 +30°C° 0 mm 1 mps 726 mmHg 60%
    22:00 +30°C° 0 mm 1 mps 725 mmHg 62%
    23:00 +29°C° 0 mm 1 mps 725 mmHg 64%

    11 April, Saturday

    Time Temperature Precipitation Wind Pressure Humidity
    00:00 +29°C° 0 mm 2 mps 725 mmHg 66%
    01:00 +28°C° 0 mm 2 mps 725 mmHg 70%
    02:00 +28°C° 0 mm 2 mps 725 mmHg 74%
    03:00 +27°C° 0 mm 2 mps 725 mmHg 77%
    04:00 +27°C° 0 mm 2 mps 725 mmHg 79%
    05:00 +27°C° 0 mm 2 mps 726 mmHg 80%
    06:00 +27°C° 0 mm 1 mps 726 mmHg 81%
    07:00 +28°C° 0 mm 2 mps 727 mmHg 80%
    08:00 +28°C° 0 mm 2 mps 727 mmHg 79%
    09:00 +28°C° 0 mm 2 mps 728 mmHg 77%
    10:00 +29°C° 0 mm 2 mps 727 mmHg 72%
    11:00 +30°C° 0 mm 2 mps 727 mmHg 66%
    12:00 +32°C° 0 mm 2 mps 727 mmHg 60%
    13:00 +32°C° 0 mm 2 mps 726 mmHg 57%
    14:00 +33°C° 0 mm 1 mps 725 mmHg 53%
    15:00 +34°C° 0 mm 1 mps 725 mmHg 50%
    16:00 +33°C° 0 mm 1 mps 725 mmHg 54%
    17:00 +32°C° 0 mm 2 mps 725 mmHg 58%
    18:00 +31°C° 0 mm 2 mps 725 mmHg 62%
    19:00 +30°C° 0 mm 2 mps 725 mmHg 63%
    20:00 +30°C° 0 mm 2 mps 725 mmHg 65%
    21:00 +29°C° 0 mm 1 mps 726 mmHg 67%
    22:00 +29°C° 0 mm 1 mps 726 mmHg 68%
    23:00 +28°C° 0 mm 1 mps 726 mmHg 70%

    12 April, Sunday

    Time Temperature Precipitation Wind Pressure Humidity
    00:00 +28°C° 0 mm 1 mps 726 mmHg 72%
    01:00 +28°C° 0 mm 1 mps 725 mmHg 73%
    02:00 +27°C° 0 mm 1 mps 725 mmHg 75%
    03:00 +27°C° 0 mm 1 mps 725 mmHg 76%
    04:00 +27°C° 0 mm 2 mps 725 mmHg 79%
    05:00 +26°C° 0 mm 2 mps 725 mmHg 81%
    06:00 +26°C° 0 mm 2 mps 726 mmHg 84%
    07:00 +28°C° 0 mm 2 mps 726 mmHg 77%
    08:00 +30°C° 0 mm 2 mps 727 mmHg 69%
    09:00 +31°C° 0 mm 2 mps 727 mmHg 62%
    10:00 +34°C° 0 mm 1 mps 727 mmHg 53%
    11:00 +37°C° 0 mm 1 mps 727 mmHg 45%
    12:00 +37°C° 0 mm 0 mps 727 mmHg 36%
    13:00 +37°C° 0 mm 0 mps 726 mmHg 34%
    14:00 +40°C° 0 mm 1 mps 725 mmHg 32%
    15:00 +40°C° 0 mm 1 mps 724 mmHg 30%
    16:00 +37°C° 0 mm 1 mps 724 mmHg 32%
    17:00 +36°C° 0 mm 1 mps 724 mmHg 34%
    18:00 +35°C° 0 mm 1 mps 724 mmHg 37%
    19:00 +34°C° 0 mm 1 mps 725 mmHg 39%
    20:00 +33°C° 0 mm 1 mps 725 mmHg 41%
    21:00 +32°C° 0 mm 1 mps 726 mmHg 43%
    22:00 +31°C° 0 mm 2 mps 726 mmHg 51%
    23:00 +30°C° 0 mm 3 mps 726 mmHg 59%
    Show more